<?xml version="1.0" encoding="UTF-8" standalone="no" ?>
<gpx xmlns="http://www.topografix.com/GPX/1/1" xmlns:xsi="http://www.w3.org/2001/XMLSchema-instance" xsi:schemaLocation="http://www.topografix.com/GPX/1/1 http://www.topografix.com/GPX/1/1/gpx.xsd" version="1.1" creator="VisuGPX - https://www.visugpx.com">
  <metadata>
    <name>Lavagnes St Jean de Buèges</name>
    <desc><![CDATA[grp_trc:]]></desc>
  </metadata>
  <trk>
    <name><![CDATA[18 déc. 2023]]></name>
    <desc><![CDATA[<html dir="ltr"><head></head><body contenteditable="true">comment ...</body></html>]]></desc>
    <extensions>
      <line xmlns="http://www.topografix.com/GPX/gpx_style/0/2">
        <color>0000FF</color>
        <width>4</width>
      </line>
    </extensions>
    <trkseg>
      <trkpt lat="43.77305" lon="3.53571">
        <ele>507</ele>
        <time>2023-12-18T10:38:38Z</time>
      </trkpt>
      <trkpt lat="43.77306" lon="3.53607">
        <ele>507</ele>
        <time>2023-12-18T10:38:38Z</time>
      </trkpt>
      <trkpt lat="43.77311" lon="3.53662">
        <ele>506</ele>
      </trkpt>
      <trkpt lat="43.77316" lon="3.53717">
        <ele>507</ele>
        <time>2023-12-18T10:38:38Z</time>
      </trkpt>
      <trkpt lat="43.77368" lon="3.53777">
        <ele>507</ele>
        <time>2023-12-18T10:38:38Z</time>
      </trkpt>
      <trkpt lat="43.77408" lon="3.53753">
        <ele>507</ele>
      </trkpt>
      <trkpt lat="43.77447" lon="3.53729">
        <ele>508</ele>
        <time>2023-12-18T10:38:38Z</time>
      </trkpt>
      <trkpt lat="43.775" lon="3.53725">
        <ele>509</ele>
        <time>2023-12-18T10:38:38Z</time>
      </trkpt>
      <trkpt lat="43.7754" lon="3.53742">
        <ele>511</ele>
      </trkpt>
      <trkpt lat="43.7758" lon="3.5376">
        <ele>514</ele>
      </trkpt>
      <trkpt lat="43.7762" lon="3.53777">
        <ele>516</ele>
      </trkpt>
      <trkpt lat="43.7766" lon="3.53794">
        <ele>519</ele>
        <time>2023-12-18T10:38:38Z</time>
      </trkpt>
      <trkpt lat="43.77686" lon="3.53826">
        <ele>522</ele>
        <time>2023-12-18T10:38:38Z</time>
      </trkpt>
      <trkpt lat="43.77709" lon="3.53881">
        <ele>526</ele>
      </trkpt>
      <trkpt lat="43.77731" lon="3.53935">
        <ele>529</ele>
        <time>2023-12-18T10:38:38Z</time>
      </trkpt>
      <trkpt lat="43.77784" lon="3.53957">
        <ele>534</ele>
      </trkpt>
      <trkpt lat="43.77836" lon="3.53978">
        <ele>539</ele>
        <time>2023-12-18T10:38:38Z</time>
      </trkpt>
      <trkpt lat="43.77877" lon="3.54028">
        <ele>544</ele>
      </trkpt>
      <trkpt lat="43.77917" lon="3.54077">
        <ele>548</ele>
        <time>2023-12-18T10:38:38Z</time>
      </trkpt>
      <trkpt lat="43.77941" lon="3.54132">
        <ele>549</ele>
      </trkpt>
      <trkpt lat="43.77965" lon="3.54187">
        <ele>550</ele>
        <time>2023-12-18T10:38:38Z</time>
      </trkpt>
      <trkpt lat="43.77968" lon="3.54223">
        <ele>549</ele>
        <time>2023-12-18T10:38:38Z</time>
      </trkpt>
      <trkpt lat="43.77963" lon="3.54296">
        <ele>547</ele>
        <time>2023-12-18T10:38:38Z</time>
      </trkpt>
      <trkpt lat="43.77976" lon="3.54351">
        <ele>545</ele>
      </trkpt>
      <trkpt lat="43.77988" lon="3.54405">
        <ele>542</ele>
        <time>2023-12-18T10:38:38Z</time>
      </trkpt>
      <trkpt lat="43.78007" lon="3.54442">
        <ele>540</ele>
        <time>2023-12-18T10:38:38Z</time>
      </trkpt>
      <trkpt lat="43.78021" lon="3.54403">
        <ele>535</ele>
        <time>2023-12-18T10:38:38Z</time>
      </trkpt>
      <trkpt lat="43.78017" lon="3.54367">
        <ele>532</ele>
        <time>2023-12-18T10:38:38Z</time>
      </trkpt>
      <trkpt lat="43.78056" lon="3.54425">
        <ele>527</ele>
      </trkpt>
      <trkpt lat="43.78095" lon="3.54483">
        <ele>521</ele>
        <time>2023-12-18T10:38:38Z</time>
      </trkpt>
      <trkpt lat="43.78121" lon="3.54489">
        <ele>514</ele>
        <time>2023-12-18T10:38:38Z</time>
      </trkpt>
      <trkpt lat="43.78148" lon="3.54504">
        <ele>509</ele>
        <time>2023-12-18T10:38:38Z</time>
      </trkpt>
      <trkpt lat="43.78162" lon="3.54541">
        <ele>505</ele>
        <time>2023-12-18T10:38:38Z</time>
      </trkpt>
      <trkpt lat="43.7821" lon="3.54614">
        <ele>500</ele>
        <time>2023-12-18T10:38:38Z</time>
      </trkpt>
      <trkpt lat="43.78263" lon="3.54676">
        <ele>494</ele>
      </trkpt>
      <trkpt lat="43.78315" lon="3.54738">
        <ele>487</ele>
        <time>2023-12-18T10:38:38Z</time>
      </trkpt>
      <trkpt lat="43.78355" lon="3.5483">
        <ele>482</ele>
      </trkpt>
      <trkpt lat="43.78394" lon="3.54923">
        <ele>478</ele>
        <time>2023-12-18T10:38:38Z</time>
      </trkpt>
      <trkpt lat="43.78412" lon="3.54995">
        <ele>475</ele>
        <time>2023-12-18T10:38:38Z</time>
      </trkpt>
      <trkpt lat="43.78464" lon="3.5506">
        <ele>469</ele>
        <time>2023-12-18T10:38:38Z</time>
      </trkpt>
      <trkpt lat="43.78488" lon="3.5511">
        <ele>464</ele>
      </trkpt>
      <trkpt lat="43.78511" lon="3.55161">
        <ele>460</ele>
      </trkpt>
      <trkpt lat="43.78535" lon="3.55211">
        <ele>457</ele>
      </trkpt>
      <trkpt lat="43.78558" lon="3.55262">
        <ele>453</ele>
        <time>2023-12-18T10:38:38Z</time>
      </trkpt>
      <trkpt lat="43.7858" lon="3.55298">
        <ele>448</ele>
        <time>2023-12-18T10:38:38Z</time>
      </trkpt>
      <trkpt lat="43.78603" lon="3.55374">
        <ele>441</ele>
      </trkpt>
      <trkpt lat="43.78626" lon="3.5545">
        <ele>433</ele>
        <time>2023-12-18T10:38:38Z</time>
      </trkpt>
      <trkpt lat="43.78668" lon="3.55525">
        <ele>421</ele>
        <time>2023-12-18T10:38:38Z</time>
      </trkpt>
      <trkpt lat="43.78686" lon="3.55576">
        <ele>413</ele>
      </trkpt>
      <trkpt lat="43.78704" lon="3.55626">
        <ele>407</ele>
        <time>2023-12-18T10:38:38Z</time>
      </trkpt>
      <trkpt lat="43.78724" lon="3.55663">
        <ele>400</ele>
        <time>2023-12-18T10:38:38Z</time>
      </trkpt>
      <trkpt lat="43.78739" lon="3.55714">
        <ele>393</ele>
      </trkpt>
      <trkpt lat="43.78755" lon="3.55764">
        <ele>385</ele>
      </trkpt>
      <trkpt lat="43.78785" lon="3.55865">
        <ele>377</ele>
      </trkpt>
      <trkpt lat="43.788" lon="3.55916">
        <ele>371</ele>
      </trkpt>
      <trkpt lat="43.78816" lon="3.55967">
        <ele>367</ele>
      </trkpt>
      <trkpt lat="43.78846" lon="3.56068">
        <ele>361</ele>
        <time>2023-12-18T10:38:38Z</time>
      </trkpt>
      <trkpt lat="43.78868" lon="3.56105">
        <ele>356</ele>
        <time>2023-12-18T10:38:38Z</time>
      </trkpt>
      <trkpt lat="43.78894" lon="3.56128">
        <ele>351</ele>
        <time>2023-12-18T10:38:38Z</time>
      </trkpt>
      <trkpt lat="43.78919" lon="3.56165">
        <ele>347</ele>
        <time>2023-12-18T10:38:38Z</time>
      </trkpt>
      <trkpt lat="43.78935" lon="3.56201">
        <ele>343</ele>
        <time>2023-12-18T10:38:38Z</time>
      </trkpt>
      <trkpt lat="43.78935" lon="3.56238">
        <ele>340</ele>
        <time>2023-12-18T10:38:38Z</time>
      </trkpt>
      <trkpt lat="43.78941" lon="3.56274">
        <ele>339</ele>
        <time>2023-12-18T10:38:38Z</time>
      </trkpt>
      <trkpt lat="43.78981" lon="3.56302">
        <ele>335</ele>
      </trkpt>
      <trkpt lat="43.7902" lon="3.5633">
        <ele>331</ele>
        <time>2023-12-18T10:38:38Z</time>
      </trkpt>
      <trkpt lat="43.79066" lon="3.56401">
        <ele>328</ele>
        <time>2023-12-18T10:38:38Z</time>
      </trkpt>
      <trkpt lat="43.79119" lon="3.56446">
        <ele>324</ele>
        <time>2023-12-18T10:38:38Z</time>
      </trkpt>
      <trkpt lat="43.79147" lon="3.56508">
        <ele>320</ele>
        <time>2023-12-18T10:38:38Z</time>
      </trkpt>
      <trkpt lat="43.79156" lon="3.56545">
        <ele>317</ele>
        <time>2023-12-18T10:38:38Z</time>
      </trkpt>
      <trkpt lat="43.79144" lon="3.56581">
        <ele>316</ele>
        <time>2023-12-18T10:38:38Z</time>
      </trkpt>
      <trkpt lat="43.7917" lon="3.56607">
        <ele>313</ele>
        <time>2023-12-18T10:38:38Z</time>
      </trkpt>
      <trkpt lat="43.79193" lon="3.56663">
        <ele>311</ele>
      </trkpt>
      <trkpt lat="43.79216" lon="3.56719">
        <ele>309</ele>
        <time>2023-12-18T10:38:38Z</time>
      </trkpt>
      <trkpt lat="43.79256" lon="3.5675">
        <ele>306</ele>
      </trkpt>
      <trkpt lat="43.79295" lon="3.56781">
        <ele>303</ele>
        <time>2023-12-18T10:38:38Z</time>
      </trkpt>
      <trkpt lat="43.79322" lon="3.56813">
        <ele>300</ele>
        <time>2023-12-18T10:38:38Z</time>
      </trkpt>
      <trkpt lat="43.7933" lon="3.5689">
        <ele>288</ele>
        <time>2023-12-18T10:38:38Z</time>
      </trkpt>
      <trkpt lat="43.79328" lon="3.56927">
        <ele>287</ele>
        <time>2023-12-18T10:38:38Z</time>
      </trkpt>
      <trkpt lat="43.79314" lon="3.56963">
        <ele>286</ele>
        <time>2023-12-18T10:38:38Z</time>
      </trkpt>
      <trkpt lat="43.79302" lon="3.57038">
        <ele>284</ele>
        <time>2023-12-18T10:38:38Z</time>
      </trkpt>
      <trkpt lat="43.79305" lon="3.57075">
        <ele>283</ele>
        <time>2023-12-18T10:38:38Z</time>
      </trkpt>
      <trkpt lat="43.79339" lon="3.57148">
        <ele>279</ele>
        <time>2023-12-18T10:38:38Z</time>
      </trkpt>
      <trkpt lat="43.79391" lon="3.57201">
        <ele>274</ele>
        <time>2023-12-18T10:38:38Z</time>
      </trkpt>
      <trkpt lat="43.79418" lon="3.57218">
        <ele>271</ele>
        <time>2023-12-18T10:38:38Z</time>
      </trkpt>
      <trkpt lat="43.79443" lon="3.57255">
        <ele>268</ele>
        <time>2023-12-18T10:38:38Z</time>
      </trkpt>
      <trkpt lat="43.79452" lon="3.57294">
        <ele>266</ele>
        <time>2023-12-18T10:38:38Z</time>
      </trkpt>
      <trkpt lat="43.79475" lon="3.5733">
        <ele>264</ele>
        <time>2023-12-18T10:38:38Z</time>
      </trkpt>
      <trkpt lat="43.79528" lon="3.57373">
        <ele>261</ele>
        <time>2023-12-18T10:38:38Z</time>
      </trkpt>
      <trkpt lat="43.7958" lon="3.57433">
        <ele>258</ele>
        <time>2023-12-18T10:38:38Z</time>
      </trkpt>
      <trkpt lat="43.79608" lon="3.57452">
        <ele>257</ele>
        <time>2023-12-18T10:38:38Z</time>
      </trkpt>
      <trkpt lat="43.79625" lon="3.57489">
        <ele>254</ele>
        <time>2023-12-18T10:38:38Z</time>
      </trkpt>
      <trkpt lat="43.79663" lon="3.57526">
        <ele>250</ele>
      </trkpt>
      <trkpt lat="43.79701" lon="3.57562">
        <ele>244</ele>
        <time>2023-12-18T10:38:38Z</time>
      </trkpt>
      <trkpt lat="43.79712" lon="3.57598">
        <ele>239</ele>
        <time>2023-12-18T10:38:38Z</time>
      </trkpt>
      <trkpt lat="43.797" lon="3.57692">
        <ele>234</ele>
      </trkpt>
      <trkpt lat="43.79687" lon="3.57785">
        <ele>229</ele>
        <time>2023-12-18T10:38:38Z</time>
      </trkpt>
      <trkpt lat="43.79687" lon="3.57821">
        <ele>226</ele>
        <time>2023-12-18T10:38:38Z</time>
      </trkpt>
      <trkpt lat="43.79693" lon="3.5786">
        <ele>223</ele>
        <time>2023-12-18T10:38:38Z</time>
      </trkpt>
      <trkpt lat="43.79733" lon="3.57875">
        <ele>221</ele>
      </trkpt>
      <trkpt lat="43.79772" lon="3.5789">
        <ele>220</ele>
        <time>2023-12-18T10:38:38Z</time>
      </trkpt>
      <trkpt lat="43.7982" lon="3.57959">
        <ele>218</ele>
        <time>2023-12-18T10:38:38Z</time>
      </trkpt>
      <trkpt lat="43.79838" lon="3.58014">
        <ele>216</ele>
      </trkpt>
      <trkpt lat="43.79855" lon="3.58068">
        <ele>214</ele>
        <time>2023-12-18T10:38:38Z</time>
      </trkpt>
      <trkpt lat="43.79853" lon="3.58105">
        <ele>213</ele>
        <time>2023-12-18T10:38:38Z</time>
      </trkpt>
      <trkpt lat="43.79861" lon="3.58141">
        <ele>212</ele>
        <time>2023-12-18T10:38:38Z</time>
      </trkpt>
      <trkpt lat="43.79908" lon="3.58212">
        <ele>210</ele>
      </trkpt>
      <trkpt lat="43.79956" lon="3.58282">
        <ele>209</ele>
      </trkpt>
      <trkpt lat="43.80003" lon="3.58353">
        <ele>208</ele>
      </trkpt>
      <trkpt lat="43.8005" lon="3.58424">
        <ele>207</ele>
        <time>2023-12-18T10:38:38Z</time>
      </trkpt>
      <trkpt lat="43.80076" lon="3.58446">
        <ele>206</ele>
        <time>2023-12-18T10:38:38Z</time>
      </trkpt>
      <trkpt lat="43.80119" lon="3.58519">
        <ele>206</ele>
        <time>2023-12-18T10:38:38Z</time>
      </trkpt>
      <trkpt lat="43.80146" lon="3.58547">
        <ele>206</ele>
        <time>2023-12-18T10:38:38Z</time>
      </trkpt>
      <trkpt lat="43.80164" lon="3.58583">
        <ele>204</ele>
        <time>2023-12-18T10:38:38Z</time>
      </trkpt>
      <trkpt lat="43.80217" lon="3.58641">
        <ele>203</ele>
        <time>2023-12-18T10:38:38Z</time>
      </trkpt>
      <trkpt lat="43.80248" lon="3.58714">
        <ele>203</ele>
        <time>2023-12-18T10:38:38Z</time>
      </trkpt>
      <trkpt lat="43.80291" lon="3.58787">
        <ele>202</ele>
        <time>2023-12-18T10:38:38Z</time>
      </trkpt>
      <trkpt lat="43.80318" lon="3.58813">
        <ele>201</ele>
        <time>2023-12-18T10:38:38Z</time>
      </trkpt>
      <trkpt lat="43.80372" lon="3.58841">
        <ele>199</ele>
        <time>2023-12-18T10:38:38Z</time>
      </trkpt>
      <trkpt lat="43.80398" lon="3.58889">
        <ele>197</ele>
      </trkpt>
      <trkpt lat="43.80423" lon="3.58936">
        <ele>195</ele>
      </trkpt>
      <trkpt lat="43.80449" lon="3.58984">
        <ele>194</ele>
      </trkpt>
      <trkpt lat="43.80474" lon="3.59032">
        <ele>193</ele>
        <time>2023-12-18T10:38:38Z</time>
      </trkpt>
      <trkpt lat="43.805" lon="3.59053">
        <ele>193</ele>
        <time>2023-12-18T10:38:38Z</time>
      </trkpt>
      <trkpt lat="43.80552" lon="3.59115">
        <ele>191</ele>
      </trkpt>
      <trkpt lat="43.80603" lon="3.59178">
        <ele>189</ele>
        <time>2023-12-18T10:38:38Z</time>
      </trkpt>
      <trkpt lat="43.80603" lon="3.59216">
        <ele>188</ele>
        <time>2023-12-18T10:38:38Z</time>
      </trkpt>
      <trkpt lat="43.8062" lon="3.59253">
        <ele>187</ele>
        <time>2023-12-18T10:38:38Z</time>
      </trkpt>
      <trkpt lat="43.80646" lon="3.59278">
        <ele>187</ele>
        <time>2023-12-18T10:38:38Z</time>
      </trkpt>
      <trkpt lat="43.80699" lon="3.59298">
        <ele>187</ele>
        <time>2023-12-18T10:38:38Z</time>
      </trkpt>
      <trkpt lat="43.80739" lon="3.59298">
        <ele>186</ele>
      </trkpt>
      <trkpt lat="43.80778" lon="3.59298">
        <ele>185</ele>
        <time>2023-12-18T10:38:38Z</time>
      </trkpt>
      <trkpt lat="43.80831" lon="3.59307">
        <ele>183</ele>
      </trkpt>
      <trkpt lat="43.80883" lon="3.59315">
        <ele>181</ele>
        <time>2023-12-18T10:38:38Z</time>
      </trkpt>
      <trkpt lat="43.80925" lon="3.59315">
        <ele>180</ele>
        <time>2023-12-18T10:38:38Z</time>
      </trkpt>
      <trkpt lat="43.80951" lon="3.59328">
        <ele>180</ele>
        <time>2023-12-18T10:38:38Z</time>
      </trkpt>
      <trkpt lat="43.80965" lon="3.59291">
        <ele>179</ele>
        <time>2023-12-18T10:38:38Z</time>
      </trkpt>
      <trkpt lat="43.81031" lon="3.59248">
        <ele>178</ele>
      </trkpt>
      <trkpt lat="43.81097" lon="3.59205">
        <ele>177</ele>
        <time>2023-12-18T10:38:38Z</time>
      </trkpt>
      <trkpt lat="43.81123" lon="3.59171">
        <ele>176</ele>
        <time>2023-12-18T10:38:38Z</time>
      </trkpt>
      <trkpt lat="43.81163" lon="3.59156">
        <ele>175</ele>
      </trkpt>
      <trkpt lat="43.81202" lon="3.59141">
        <ele>174</ele>
        <time>2023-12-18T10:38:38Z</time>
      </trkpt>
      <trkpt lat="43.8123" lon="3.59122">
        <ele>171</ele>
        <time>2023-12-18T10:38:38Z</time>
      </trkpt>
      <trkpt lat="43.81251" lon="3.59085">
        <ele>171</ele>
        <time>2023-12-18T10:38:38Z</time>
      </trkpt>
      <trkpt lat="43.81251" lon="3.59049">
        <ele>172</ele>
        <time>2023-12-18T10:38:38Z</time>
      </trkpt>
      <trkpt lat="43.81278" lon="3.59042">
        <ele>173</ele>
        <time>2023-12-18T10:38:38Z</time>
      </trkpt>
      <trkpt lat="43.81332" lon="3.5906">
        <ele>172</ele>
        <time>2023-12-18T10:38:38Z</time>
      </trkpt>
      <trkpt lat="43.81348" lon="3.59106">
        <ele>172</ele>
      </trkpt>
      <trkpt lat="43.81364" lon="3.59151">
        <ele>171</ele>
      </trkpt>
      <trkpt lat="43.81379" lon="3.59197">
        <ele>171</ele>
      </trkpt>
      <trkpt lat="43.81395" lon="3.59242">
        <ele>170</ele>
        <time>2023-12-18T10:38:38Z</time>
      </trkpt>
      <trkpt lat="43.814" lon="3.59278">
        <ele>169</ele>
        <time>2023-12-18T10:38:38Z</time>
      </trkpt>
      <trkpt lat="43.81378" lon="3.59351">
        <ele>169</ele>
      </trkpt>
      <trkpt lat="43.81355" lon="3.59424">
        <ele>168</ele>
        <time>2023-12-18T10:38:38Z</time>
      </trkpt>
      <trkpt lat="43.81345" lon="3.5949">
        <ele>168</ele>
      </trkpt>
      <trkpt lat="43.81335" lon="3.59555">
        <ele>168</ele>
      </trkpt>
      <trkpt lat="43.81325" lon="3.59621">
        <ele>167</ele>
      </trkpt>
      <trkpt lat="43.81315" lon="3.59686">
        <ele>166</ele>
        <time>2023-12-18T10:38:38Z</time>
      </trkpt>
      <trkpt lat="43.8129" lon="3.59759">
        <ele>166</ele>
        <time>2023-12-18T10:38:38Z</time>
      </trkpt>
      <trkpt lat="43.81287" lon="3.59796">
        <ele>166</ele>
        <time>2023-12-18T10:38:38Z</time>
      </trkpt>
      <trkpt lat="43.81292" lon="3.59832">
        <ele>165</ele>
        <time>2023-12-18T10:38:38Z</time>
      </trkpt>
      <trkpt lat="43.81304" lon="3.59869">
        <ele>165</ele>
        <time>2023-12-18T10:38:38Z</time>
      </trkpt>
      <trkpt lat="43.81339" lon="3.59925">
        <ele>165</ele>
      </trkpt>
      <trkpt lat="43.81374" lon="3.5998">
        <ele>164</ele>
        <time>2023-12-18T10:38:38Z</time>
      </trkpt>
      <trkpt lat="43.81378" lon="3.60017">
        <ele>164</ele>
        <time>2023-12-18T10:38:38Z</time>
      </trkpt>
      <trkpt lat="43.81377" lon="3.60092">
        <ele>164</ele>
        <time>2023-12-18T10:38:38Z</time>
      </trkpt>
      <trkpt lat="43.81392" lon="3.60165">
        <ele>164</ele>
        <time>2023-12-18T10:38:38Z</time>
      </trkpt>
      <trkpt lat="43.81392" lon="3.60238">
        <ele>163</ele>
        <time>2023-12-18T10:38:38Z</time>
      </trkpt>
      <trkpt lat="43.81405" lon="3.60274">
        <ele>163</ele>
        <time>2023-12-18T10:38:38Z</time>
      </trkpt>
      <trkpt lat="43.81457" lon="3.60334">
        <ele>163</ele>
        <time>2023-12-18T10:38:38Z</time>
      </trkpt>
      <trkpt lat="43.81481" lon="3.60371">
        <ele>163</ele>
        <time>2023-12-18T10:38:38Z</time>
      </trkpt>
      <trkpt lat="43.81508" lon="3.60446">
        <ele>163</ele>
        <time>2023-12-18T10:38:38Z</time>
      </trkpt>
      <trkpt lat="43.81522" lon="3.60519">
        <ele>162</ele>
        <time>2023-12-18T10:38:38Z</time>
      </trkpt>
      <trkpt lat="43.81538" lon="3.60555">
        <ele>162</ele>
        <time>2023-12-18T10:38:38Z</time>
      </trkpt>
      <trkpt lat="43.8159" lon="3.60559">
        <ele>162</ele>
        <time>2023-12-18T10:38:38Z</time>
      </trkpt>
      <trkpt lat="43.81643" lon="3.60596">
        <ele>162</ele>
        <time>2023-12-18T10:38:38Z</time>
      </trkpt>
      <trkpt lat="43.81694" lon="3.60662">
        <ele>163</ele>
        <time>2023-12-18T10:38:38Z</time>
      </trkpt>
      <trkpt lat="43.81747" lon="3.60697">
        <ele>164</ele>
        <time>2023-12-18T10:38:38Z</time>
      </trkpt>
      <trkpt lat="43.81758" lon="3.6077">
        <ele>164</ele>
        <time>2023-12-18T10:38:38Z</time>
      </trkpt>
      <trkpt lat="43.81786" lon="3.60845">
        <ele>164</ele>
        <time>2023-12-18T10:38:38Z</time>
      </trkpt>
      <trkpt lat="43.81812" lon="3.60862">
        <ele>165</ele>
        <time>2023-12-18T10:38:38Z</time>
      </trkpt>
      <trkpt lat="43.8186" lon="3.60933">
        <ele>165</ele>
        <time>2023-12-18T10:38:38Z</time>
      </trkpt>
      <trkpt lat="43.81886" lon="3.60948">
        <ele>165</ele>
        <time>2023-12-18T10:38:38Z</time>
      </trkpt>
      <trkpt lat="43.81913" lon="3.60963">
        <ele>165</ele>
        <time>2023-12-18T10:38:38Z</time>
      </trkpt>
      <trkpt lat="43.81939" lon="3.60989">
        <ele>165</ele>
        <time>2023-12-18T10:38:38Z</time>
      </trkpt>
      <trkpt lat="43.81957" lon="3.61044">
        <ele>164</ele>
      </trkpt>
      <trkpt lat="43.81974" lon="3.61098">
        <ele>164</ele>
        <time>2023-12-18T10:38:38Z</time>
      </trkpt>
      <trkpt lat="43.81982" lon="3.61135">
        <ele>164</ele>
        <time>2023-12-18T10:38:38Z</time>
      </trkpt>
      <trkpt lat="43.81982" lon="3.61208">
        <ele>163</ele>
      </trkpt>
      <trkpt lat="43.81981" lon="3.6128">
        <ele>162</ele>
        <time>2023-12-18T10:38:38Z</time>
      </trkpt>
      <trkpt lat="43.82007" lon="3.61372">
        <ele>162</ele>
      </trkpt>
      <trkpt lat="43.82033" lon="3.61463">
        <ele>162</ele>
        <time>2023-12-18T10:38:38Z</time>
      </trkpt>
      <trkpt lat="43.8206" lon="3.61489">
        <ele>161</ele>
        <time>2023-12-18T10:38:38Z</time>
      </trkpt>
      <trkpt lat="43.821" lon="3.61478">
        <ele>160</ele>
      </trkpt>
      <trkpt lat="43.82139" lon="3.61467">
        <ele>160</ele>
        <time>2023-12-18T10:38:38Z</time>
      </trkpt>
      <trkpt lat="43.82165" lon="3.61501">
        <ele>160</ele>
        <time>2023-12-18T10:38:38Z</time>
      </trkpt>
      <trkpt lat="43.82185" lon="3.61556">
        <ele>161</ele>
      </trkpt>
      <trkpt lat="43.82205" lon="3.61611">
        <ele>160</ele>
        <time>2023-12-18T10:38:38Z</time>
      </trkpt>
      <trkpt lat="43.82231" lon="3.61645">
        <ele>159</ele>
        <time>2023-12-18T10:38:38Z</time>
      </trkpt>
      <trkpt lat="43.82267" lon="3.61709">
        <ele>159</ele>
      </trkpt>
      <trkpt lat="43.82303" lon="3.61772">
        <ele>158</ele>
        <time>2023-12-18T10:38:38Z</time>
      </trkpt>
      <trkpt lat="43.82329" lon="3.6178">
        <ele>158</ele>
        <time>2023-12-18T10:38:38Z</time>
      </trkpt>
      <trkpt lat="43.82355" lon="3.61783">
        <ele>158</ele>
        <time>2023-12-18T10:38:38Z</time>
      </trkpt>
      <trkpt lat="43.82409" lon="3.61762">
        <ele>157</ele>
      </trkpt>
      <trkpt lat="43.82462" lon="3.6174">
        <ele>157</ele>
        <time>2023-12-18T10:38:38Z</time>
      </trkpt>
      <trkpt lat="43.82503" lon="3.61743">
        <ele>157</ele>
      </trkpt>
      <trkpt lat="43.82543" lon="3.61746">
        <ele>157</ele>
        <time>2023-12-18T10:38:38Z</time>
      </trkpt>
      <trkpt lat="43.8261" lon="3.61767">
        <ele>157</ele>
      </trkpt>
      <trkpt lat="43.82676" lon="3.61787">
        <ele>157</ele>
        <time>2023-12-18T10:38:38Z</time>
      </trkpt>
      <trkpt lat="43.82755" lon="3.61746">
        <ele>157</ele>
        <time>2023-12-18T10:38:38Z</time>
      </trkpt>
      <trkpt lat="43.82778" lon="3.6171">
        <ele>157</ele>
        <time>2023-12-18T10:38:38Z</time>
      </trkpt>
      <trkpt lat="43.82786" lon="3.61671">
        <ele>158</ele>
        <time>2023-12-18T10:38:38Z</time>
      </trkpt>
      <trkpt lat="43.82772" lon="3.61562">
        <ele>160</ele>
        <time>2023-12-18T10:38:38Z</time>
      </trkpt>
      <trkpt lat="43.82693" lon="3.61501">
        <ele>164</ele>
        <time>2023-12-18T10:38:38Z</time>
      </trkpt>
      <trkpt lat="43.82673" lon="3.61465">
        <ele>167</ele>
        <time>2023-12-18T10:38:38Z</time>
      </trkpt>
      <trkpt lat="43.82637" lon="3.61356">
        <ele>172</ele>
        <time>2023-12-18T10:38:38Z</time>
      </trkpt>
      <trkpt lat="43.82634" lon="3.61319">
        <ele>176</ele>
        <time>2023-12-18T10:38:38Z</time>
      </trkpt>
      <trkpt lat="43.82656" lon="3.61173">
        <ele>182</ele>
        <time>2023-12-18T10:38:38Z</time>
      </trkpt>
      <trkpt lat="43.82642" lon="3.611">
        <ele>189</ele>
        <time>2023-12-18T10:38:38Z</time>
      </trkpt>
      <trkpt lat="43.82654" lon="3.61064">
        <ele>195</ele>
        <time>2023-12-18T10:38:38Z</time>
      </trkpt>
      <trkpt lat="43.82659" lon="3.61027">
        <ele>199</ele>
        <time>2023-12-18T10:38:38Z</time>
      </trkpt>
      <trkpt lat="43.82682" lon="3.60954">
        <ele>206</ele>
        <time>2023-12-18T10:38:38Z</time>
      </trkpt>
      <trkpt lat="43.82683" lon="3.60918">
        <ele>213</ele>
        <time>2023-12-18T10:38:38Z</time>
      </trkpt>
      <trkpt lat="43.82642" lon="3.60808">
        <ele>223</ele>
        <time>2023-12-18T10:38:38Z</time>
      </trkpt>
      <trkpt lat="43.82688" lon="3.60738">
        <ele>237</ele>
        <time>2023-12-18T10:38:38Z</time>
      </trkpt>
      <trkpt lat="43.8269" lon="3.60701">
        <ele>247</ele>
        <time>2023-12-18T10:38:38Z</time>
      </trkpt>
      <trkpt lat="43.8268" lon="3.60665">
        <ele>255</ele>
        <time>2023-12-18T10:38:38Z</time>
      </trkpt>
      <trkpt lat="43.82676" lon="3.60592">
        <ele>263</ele>
        <time>2023-12-18T10:38:38Z</time>
      </trkpt>
      <trkpt lat="43.8266" lon="3.60555">
        <ele>272</ele>
        <time>2023-12-18T10:38:38Z</time>
      </trkpt>
      <trkpt lat="43.8264" lon="3.60482">
        <ele>283</ele>
        <time>2023-12-18T10:38:38Z</time>
      </trkpt>
      <trkpt lat="43.82589" lon="3.60411">
        <ele>297</ele>
        <time>2023-12-18T10:38:38Z</time>
      </trkpt>
      <trkpt lat="43.82574" lon="3.60375">
        <ele>306</ele>
        <time>2023-12-18T10:38:38Z</time>
      </trkpt>
      <trkpt lat="43.826" lon="3.60356">
        <ele>315</ele>
        <time>2023-12-18T10:38:38Z</time>
      </trkpt>
      <trkpt lat="43.82626" lon="3.60205">
        <ele>329</ele>
        <time>2023-12-18T10:38:38Z</time>
      </trkpt>
      <trkpt lat="43.82629" lon="3.6013">
        <ele>341</ele>
        <time>2023-12-18T10:38:38Z</time>
      </trkpt>
      <trkpt lat="43.82645" lon="3.60167">
        <ele>350</ele>
        <time>2023-12-18T10:38:38Z</time>
      </trkpt>
      <trkpt lat="43.82671" lon="3.60193">
        <ele>357</ele>
        <time>2023-12-18T10:38:38Z</time>
      </trkpt>
      <trkpt lat="43.82671" lon="3.60156">
        <ele>364</ele>
        <time>2023-12-18T10:38:38Z</time>
      </trkpt>
      <trkpt lat="43.82697" lon="3.6016">
        <ele>371</ele>
        <time>2023-12-18T10:38:38Z</time>
      </trkpt>
      <trkpt lat="43.82776" lon="3.60229">
        <ele>381</ele>
        <time>2023-12-18T10:38:38Z</time>
      </trkpt>
      <trkpt lat="43.82792" lon="3.60193">
        <ele>392</ele>
        <time>2023-12-18T10:38:38Z</time>
      </trkpt>
      <trkpt lat="43.82778" lon="3.60156">
        <ele>401</ele>
        <time>2023-12-18T10:38:38Z</time>
      </trkpt>
      <trkpt lat="43.82773" lon="3.6012">
        <ele>408</ele>
        <time>2023-12-18T10:38:38Z</time>
      </trkpt>
      <trkpt lat="43.82789" lon="3.60156">
        <ele>414</ele>
        <time>2023-12-18T10:38:38Z</time>
      </trkpt>
      <trkpt lat="43.82821" lon="3.60083">
        <ele>426</ele>
        <time>2023-12-18T10:38:38Z</time>
      </trkpt>
      <trkpt lat="43.82848" lon="3.60079">
        <ele>438</ele>
        <time>2023-12-18T10:38:38Z</time>
      </trkpt>
      <trkpt lat="43.82874" lon="3.60109">
        <ele>449</ele>
        <time>2023-12-18T10:38:38Z</time>
      </trkpt>
      <trkpt lat="43.82896" lon="3.6007">
        <ele>463</ele>
        <time>2023-12-18T10:38:38Z</time>
      </trkpt>
      <trkpt lat="43.82894" lon="3.60034">
        <ele>474</ele>
        <time>2023-12-18T10:38:38Z</time>
      </trkpt>
      <trkpt lat="43.82908" lon="3.6007">
        <ele>483</ele>
        <time>2023-12-18T10:38:38Z</time>
      </trkpt>
      <trkpt lat="43.82934" lon="3.60105">
        <ele>492</ele>
        <time>2023-12-18T10:38:38Z</time>
      </trkpt>
      <trkpt lat="43.82945" lon="3.60068">
        <ele>503</ele>
        <time>2023-12-18T10:38:38Z</time>
      </trkpt>
      <trkpt lat="43.82947" lon="3.59995">
        <ele>515</ele>
        <time>2023-12-18T10:38:38Z</time>
      </trkpt>
      <trkpt lat="43.8292" lon="3.59959">
        <ele>525</ele>
        <time>2023-12-18T10:38:38Z</time>
      </trkpt>
      <trkpt lat="43.82917" lon="3.59879">
        <ele>532</ele>
        <time>2023-12-18T10:38:38Z</time>
      </trkpt>
      <trkpt lat="43.82925" lon="3.59841">
        <ele>538</ele>
        <time>2023-12-18T10:38:38Z</time>
      </trkpt>
      <trkpt lat="43.82927" lon="3.59768">
        <ele>543</ele>
        <time>2023-12-18T10:38:38Z</time>
      </trkpt>
      <trkpt lat="43.829" lon="3.59748">
        <ele>546</ele>
        <time>2023-12-18T10:38:38Z</time>
      </trkpt>
      <trkpt lat="43.82851" lon="3.59684">
        <ele>552</ele>
        <time>2023-12-18T10:38:38Z</time>
      </trkpt>
      <trkpt lat="43.82877" lon="3.59663">
        <ele>583</ele>
        <time>2023-12-18T10:38:38Z</time>
      </trkpt>
      <trkpt lat="43.82875" lon="3.59626">
        <ele>585</ele>
        <time>2023-12-18T10:38:38Z</time>
      </trkpt>
      <trkpt lat="43.82896" lon="3.5959">
        <ele>588</ele>
        <time>2023-12-18T10:38:38Z</time>
      </trkpt>
      <trkpt lat="43.82922" lon="3.59562">
        <ele>592</ele>
        <time>2023-12-18T10:38:38Z</time>
      </trkpt>
      <trkpt lat="43.82948" lon="3.5959">
        <ele>599</ele>
        <time>2023-12-18T10:38:38Z</time>
      </trkpt>
      <trkpt lat="43.82975" lon="3.59592">
        <ele>609</ele>
        <time>2023-12-18T10:38:38Z</time>
      </trkpt>
      <trkpt lat="43.82999" lon="3.59409">
        <ele>628</ele>
      </trkpt>
      <trkpt lat="43.83022" lon="3.59225">
        <ele>644</ele>
        <time>2023-12-18T10:38:38Z</time>
      </trkpt>
      <trkpt lat="43.83035" lon="3.59188">
        <ele>653</ele>
        <time>2023-12-18T10:38:38Z</time>
      </trkpt>
      <trkpt lat="43.83088" lon="3.59128">
        <ele>660</ele>
        <time>2023-12-18T10:38:38Z</time>
      </trkpt>
      <trkpt lat="43.83114" lon="3.59107">
        <ele>665</ele>
        <time>2023-12-18T10:38:38Z</time>
      </trkpt>
      <trkpt lat="43.8314" lon="3.59072">
        <ele>669</ele>
        <time>2023-12-18T10:38:38Z</time>
      </trkpt>
      <trkpt lat="43.83145" lon="3.5903">
        <ele>673</ele>
        <time>2023-12-18T10:38:38Z</time>
      </trkpt>
      <trkpt lat="43.83128" lon="3.58993">
        <ele>676</ele>
        <time>2023-12-18T10:38:38Z</time>
      </trkpt>
      <trkpt lat="43.83117" lon="3.58957">
        <ele>679</ele>
        <time>2023-12-18T10:38:38Z</time>
      </trkpt>
      <trkpt lat="43.83091" lon="3.58937">
        <ele>682</ele>
        <time>2023-12-18T10:38:38Z</time>
      </trkpt>
      <trkpt lat="43.83067" lon="3.58901">
        <ele>686</ele>
        <time>2023-12-18T10:38:38Z</time>
      </trkpt>
      <trkpt lat="43.83058" lon="3.58826">
        <ele>691</ele>
        <time>2023-12-18T10:38:38Z</time>
      </trkpt>
      <trkpt lat="43.83046" lon="3.58789">
        <ele>695</ele>
        <time>2023-12-18T10:38:38Z</time>
      </trkpt>
      <trkpt lat="43.83024" lon="3.58753">
        <ele>700</ele>
        <time>2023-12-18T10:38:38Z</time>
      </trkpt>
      <trkpt lat="43.82998" lon="3.58731">
        <ele>706</ele>
        <time>2023-12-18T10:38:38Z</time>
      </trkpt>
      <trkpt lat="43.82988" lon="3.58693">
        <ele>712</ele>
        <time>2023-12-18T10:38:38Z</time>
      </trkpt>
      <trkpt lat="43.82978" lon="3.5862">
        <ele>721</ele>
        <time>2023-12-18T10:38:38Z</time>
      </trkpt>
      <trkpt lat="43.82913" lon="3.5851">
        <ele>730</ele>
        <time>2023-12-18T10:38:38Z</time>
      </trkpt>
      <trkpt lat="43.82886" lon="3.58502">
        <ele>737</ele>
        <time>2023-12-18T10:38:38Z</time>
      </trkpt>
      <trkpt lat="43.82834" lon="3.5851">
        <ele>741</ele>
        <time>2023-12-18T10:38:38Z</time>
      </trkpt>
      <trkpt lat="43.82807" lon="3.58504">
        <ele>743</ele>
        <time>2023-12-18T10:38:38Z</time>
      </trkpt>
      <trkpt lat="43.82781" lon="3.58523">
        <ele>744</ele>
        <time>2023-12-18T10:38:38Z</time>
      </trkpt>
      <trkpt lat="43.82701" lon="3.58557">
        <ele>743</ele>
        <time>2023-12-18T10:38:38Z</time>
      </trkpt>
      <trkpt lat="43.82674" lon="3.58557">
        <ele>742</ele>
        <time>2023-12-18T10:38:38Z</time>
      </trkpt>
      <trkpt lat="43.82648" lon="3.58547">
        <ele>742</ele>
        <time>2023-12-18T10:38:38Z</time>
      </trkpt>
      <trkpt lat="43.82625" lon="3.5851">
        <ele>743</ele>
        <time>2023-12-18T10:38:38Z</time>
      </trkpt>
      <trkpt lat="43.82606" lon="3.58401">
        <ele>746</ele>
        <time>2023-12-18T10:38:38Z</time>
      </trkpt>
      <trkpt lat="43.82605" lon="3.58364">
        <ele>748</ele>
        <time>2023-12-18T10:38:38Z</time>
      </trkpt>
      <trkpt lat="43.82552" lon="3.58336">
        <ele>754</ele>
        <time>2023-12-18T10:38:38Z</time>
      </trkpt>
      <trkpt lat="43.82527" lon="3.583">
        <ele>759</ele>
        <time>2023-12-18T10:38:38Z</time>
      </trkpt>
      <trkpt lat="43.82527" lon="3.58263">
        <ele>762</ele>
        <time>2023-12-18T10:38:38Z</time>
      </trkpt>
      <trkpt lat="43.82535" lon="3.58186">
        <ele>762</ele>
        <time>2023-12-18T10:38:38Z</time>
      </trkpt>
      <trkpt lat="43.82501" lon="3.58077">
        <ele>753</ele>
        <time>2023-12-18T10:38:38Z</time>
      </trkpt>
      <trkpt lat="43.82482" lon="3.57967">
        <ele>742</ele>
        <time>2023-12-18T10:38:38Z</time>
      </trkpt>
      <trkpt lat="43.82456" lon="3.57894">
        <ele>732</ele>
        <time>2023-12-18T10:38:38Z</time>
      </trkpt>
      <trkpt lat="43.8245" lon="3.57821">
        <ele>723</ele>
        <time>2023-12-18T10:38:38Z</time>
      </trkpt>
      <trkpt lat="43.8243" lon="3.57785">
        <ele>717</ele>
        <time>2023-12-18T10:38:38Z</time>
      </trkpt>
      <trkpt lat="43.82434" lon="3.57748">
        <ele>712</ele>
        <time>2023-12-18T10:38:38Z</time>
      </trkpt>
      <trkpt lat="43.82431" lon="3.57712">
        <ele>707</ele>
        <time>2023-12-18T10:38:38Z</time>
      </trkpt>
      <trkpt lat="43.82409" lon="3.57673">
        <ele>703</ele>
        <time>2023-12-18T10:38:38Z</time>
      </trkpt>
      <trkpt lat="43.82403" lon="3.57637">
        <ele>698</ele>
        <time>2023-12-18T10:38:38Z</time>
      </trkpt>
      <trkpt lat="43.82388" lon="3.576">
        <ele>694</ele>
        <time>2023-12-18T10:38:38Z</time>
      </trkpt>
      <trkpt lat="43.82293" lon="3.57517">
        <ele>686</ele>
        <time>2023-12-18T10:38:38Z</time>
      </trkpt>
      <trkpt lat="43.82284" lon="3.5748">
        <ele>680</ele>
        <time>2023-12-18T10:38:38Z</time>
      </trkpt>
      <trkpt lat="43.82258" lon="3.57455">
        <ele>677</ele>
        <time>2023-12-18T10:38:38Z</time>
      </trkpt>
      <trkpt lat="43.82233" lon="3.57418">
        <ele>666</ele>
        <time>2023-12-18T10:38:38Z</time>
      </trkpt>
      <trkpt lat="43.82219" lon="3.57382">
        <ele>665</ele>
        <time>2023-12-18T10:38:38Z</time>
      </trkpt>
      <trkpt lat="43.82219" lon="3.57309">
        <ele>666</ele>
        <time>2023-12-18T10:38:38Z</time>
      </trkpt>
      <trkpt lat="43.82204" lon="3.57272">
        <ele>666</ele>
        <time>2023-12-18T10:38:38Z</time>
      </trkpt>
      <trkpt lat="43.82177" lon="3.57246">
        <ele>666</ele>
        <time>2023-12-18T10:38:38Z</time>
      </trkpt>
      <trkpt lat="43.82124" lon="3.57214">
        <ele>666</ele>
      </trkpt>
      <trkpt lat="43.8207" lon="3.57182">
        <ele>667</ele>
        <time>2023-12-18T10:38:38Z</time>
      </trkpt>
      <trkpt lat="43.8205" lon="3.57146">
        <ele>668</ele>
        <time>2023-12-18T10:38:38Z</time>
      </trkpt>
      <trkpt lat="43.82047" lon="3.57109">
        <ele>669</ele>
        <time>2023-12-18T10:38:38Z</time>
      </trkpt>
      <trkpt lat="43.82021" lon="3.57083">
        <ele>671</ele>
        <time>2023-12-18T10:38:38Z</time>
      </trkpt>
      <trkpt lat="43.81995" lon="3.5709">
        <ele>673</ele>
        <time>2023-12-18T10:38:38Z</time>
      </trkpt>
      <trkpt lat="43.8194" lon="3.57131">
        <ele>676</ele>
        <time>2023-12-18T10:38:38Z</time>
      </trkpt>
      <trkpt lat="43.81873" lon="3.57135">
        <ele>678</ele>
      </trkpt>
      <trkpt lat="43.81806" lon="3.57139">
        <ele>682</ele>
        <time>2023-12-18T10:38:38Z</time>
      </trkpt>
      <trkpt lat="43.81727" lon="3.57178">
        <ele>686</ele>
        <time>2023-12-18T10:38:38Z</time>
      </trkpt>
      <trkpt lat="43.81674" lon="3.57182">
        <ele>689</ele>
        <time>2023-12-18T10:38:38Z</time>
      </trkpt>
      <trkpt lat="43.81615" lon="3.57165">
        <ele>692</ele>
        <time>2023-12-18T10:38:38Z</time>
      </trkpt>
      <trkpt lat="43.81589" lon="3.57167">
        <ele>693</ele>
        <time>2023-12-18T10:38:38Z</time>
      </trkpt>
      <trkpt lat="43.81563" lon="3.57176">
        <ele>692</ele>
        <time>2023-12-18T10:38:38Z</time>
      </trkpt>
      <trkpt lat="43.81536" lon="3.57165">
        <ele>692</ele>
        <time>2023-12-18T10:38:38Z</time>
      </trkpt>
      <trkpt lat="43.81484" lon="3.57163">
        <ele>692</ele>
        <time>2023-12-18T10:38:38Z</time>
      </trkpt>
      <trkpt lat="43.81457" lon="3.57154">
        <ele>692</ele>
        <time>2023-12-18T10:38:38Z</time>
      </trkpt>
      <trkpt lat="43.81431" lon="3.57156">
        <ele>692</ele>
        <time>2023-12-18T10:38:38Z</time>
      </trkpt>
      <trkpt lat="43.81378" lon="3.5712">
        <ele>690</ele>
        <time>2023-12-18T10:38:38Z</time>
      </trkpt>
      <trkpt lat="43.81374" lon="3.57083">
        <ele>689</ele>
        <time>2023-12-18T10:38:38Z</time>
      </trkpt>
      <trkpt lat="43.81321" lon="3.57023">
        <ele>688</ele>
        <time>2023-12-18T10:38:38Z</time>
      </trkpt>
      <trkpt lat="43.81268" lon="3.56985">
        <ele>686</ele>
        <time>2023-12-18T10:38:38Z</time>
      </trkpt>
      <trkpt lat="43.81233" lon="3.56905">
        <ele>684</ele>
        <time>2023-12-18T10:38:38Z</time>
      </trkpt>
      <trkpt lat="43.81143" lon="3.5683">
        <ele>682</ele>
        <time>2023-12-18T10:38:38Z</time>
      </trkpt>
      <trkpt lat="43.81132" lon="3.56794">
        <ele>681</ele>
        <time>2023-12-18T10:38:38Z</time>
      </trkpt>
      <trkpt lat="43.8108" lon="3.56769">
        <ele>679</ele>
      </trkpt>
      <trkpt lat="43.81027" lon="3.56744">
        <ele>674</ele>
        <time>2023-12-18T10:38:38Z</time>
      </trkpt>
      <trkpt lat="43.81001" lon="3.56712">
        <ele>669</ele>
        <time>2023-12-18T10:38:38Z</time>
      </trkpt>
      <trkpt lat="43.80982" lon="3.56676">
        <ele>665</ele>
        <time>2023-12-18T10:38:38Z</time>
      </trkpt>
      <trkpt lat="43.80954" lon="3.5665">
        <ele>661</ele>
        <time>2023-12-18T10:38:38Z</time>
      </trkpt>
      <trkpt lat="43.80932" lon="3.56613">
        <ele>658</ele>
        <time>2023-12-18T10:38:38Z</time>
      </trkpt>
      <trkpt lat="43.80943" lon="3.5654">
        <ele>657</ele>
        <time>2023-12-18T10:38:38Z</time>
      </trkpt>
      <trkpt lat="43.80936" lon="3.56504">
        <ele>657</ele>
        <time>2023-12-18T10:38:38Z</time>
      </trkpt>
      <trkpt lat="43.80908" lon="3.56429">
        <ele>657</ele>
        <time>2023-12-18T10:38:38Z</time>
      </trkpt>
      <trkpt lat="43.809" lon="3.56392">
        <ele>657</ele>
        <time>2023-12-18T10:38:38Z</time>
      </trkpt>
      <trkpt lat="43.80867" lon="3.56319">
        <ele>654</ele>
        <time>2023-12-18T10:38:38Z</time>
      </trkpt>
      <trkpt lat="43.80841" lon="3.56296">
        <ele>652</ele>
        <time>2023-12-18T10:38:38Z</time>
      </trkpt>
      <trkpt lat="43.80788" lon="3.56276">
        <ele>651</ele>
        <time>2023-12-18T10:38:38Z</time>
      </trkpt>
      <trkpt lat="43.80736" lon="3.5624">
        <ele>651</ele>
        <time>2023-12-18T10:38:38Z</time>
      </trkpt>
      <trkpt lat="43.80683" lon="3.5625">
        <ele>652</ele>
      </trkpt>
      <trkpt lat="43.8063" lon="3.56259">
        <ele>655</ele>
        <time>2023-12-18T10:38:38Z</time>
      </trkpt>
      <trkpt lat="43.80604" lon="3.5624">
        <ele>656</ele>
        <time>2023-12-18T10:38:38Z</time>
      </trkpt>
      <trkpt lat="43.80599" lon="3.56204">
        <ele>657</ele>
        <time>2023-12-18T10:38:38Z</time>
      </trkpt>
      <trkpt lat="43.80624" lon="3.56131">
        <ele>658</ele>
        <time>2023-12-18T10:38:38Z</time>
      </trkpt>
      <trkpt lat="43.80572" lon="3.56154">
        <ele>658</ele>
        <time>2023-12-18T10:38:38Z</time>
      </trkpt>
      <trkpt lat="43.80533" lon="3.56141">
        <ele>658</ele>
        <time>2023-12-18T10:38:38Z</time>
      </trkpt>
      <trkpt lat="43.80507" lon="3.5612">
        <ele>658</ele>
        <time>2023-12-18T10:38:38Z</time>
      </trkpt>
      <trkpt lat="43.80454" lon="3.56103">
        <ele>658</ele>
        <time>2023-12-18T10:38:38Z</time>
      </trkpt>
      <trkpt lat="43.80401" lon="3.56098">
        <ele>660</ele>
        <time>2023-12-18T10:38:38Z</time>
      </trkpt>
      <trkpt lat="43.80296" lon="3.56038">
        <ele>674</ele>
        <time>2023-12-18T10:38:38Z</time>
      </trkpt>
      <trkpt lat="43.80257" lon="3.56006">
        <ele>674</ele>
      </trkpt>
      <trkpt lat="43.80217" lon="3.55974">
        <ele>675</ele>
        <time>2023-12-18T10:38:38Z</time>
      </trkpt>
      <trkpt lat="43.80198" lon="3.55935">
        <ele>675</ele>
        <time>2023-12-18T10:38:38Z</time>
      </trkpt>
      <trkpt lat="43.80177" lon="3.55862">
        <ele>675</ele>
        <time>2023-12-18T10:38:38Z</time>
      </trkpt>
      <trkpt lat="43.8015" lon="3.55828">
        <ele>676</ele>
        <time>2023-12-18T10:38:38Z</time>
      </trkpt>
      <trkpt lat="43.80111" lon="3.5581">
        <ele>678</ele>
      </trkpt>
      <trkpt lat="43.80071" lon="3.55792">
        <ele>680</ele>
        <time>2023-12-18T10:38:38Z</time>
      </trkpt>
      <trkpt lat="43.80076" lon="3.55755">
        <ele>682</ele>
        <time>2023-12-18T10:38:38Z</time>
      </trkpt>
      <trkpt lat="43.80102" lon="3.55721">
        <ele>683</ele>
        <time>2023-12-18T10:38:38Z</time>
      </trkpt>
      <trkpt lat="43.80096" lon="3.55682">
        <ele>684</ele>
        <time>2023-12-18T10:38:38Z</time>
      </trkpt>
      <trkpt lat="43.80104" lon="3.55646">
        <ele>686</ele>
        <time>2023-12-18T10:38:38Z</time>
      </trkpt>
      <trkpt lat="43.80067" lon="3.5559">
        <ele>688</ele>
      </trkpt>
      <trkpt lat="43.8003" lon="3.55534">
        <ele>690</ele>
        <time>2023-12-18T10:38:38Z</time>
      </trkpt>
      <trkpt lat="43.80005" lon="3.55498">
        <ele>691</ele>
        <time>2023-12-18T10:38:38Z</time>
      </trkpt>
      <trkpt lat="43.79991" lon="3.55425">
        <ele>693</ele>
        <time>2023-12-18T10:38:38Z</time>
      </trkpt>
      <trkpt lat="43.79966" lon="3.55369">
        <ele>694</ele>
      </trkpt>
      <trkpt lat="43.7994" lon="3.55313">
        <ele>696</ele>
        <time>2023-12-18T10:38:38Z</time>
      </trkpt>
      <trkpt lat="43.79887" lon="3.55262">
        <ele>699</ele>
        <time>2023-12-18T10:38:38Z</time>
      </trkpt>
      <trkpt lat="43.7985" lon="3.55189">
        <ele>701</ele>
        <time>2023-12-18T10:38:38Z</time>
      </trkpt>
      <trkpt lat="43.79794" lon="3.55137">
        <ele>703</ele>
        <time>2023-12-18T10:38:38Z</time>
      </trkpt>
      <trkpt lat="43.79768" lon="3.55131">
        <ele>704</ele>
        <time>2023-12-18T10:38:38Z</time>
      </trkpt>
      <trkpt lat="43.79742" lon="3.55098">
        <ele>704</ele>
        <time>2023-12-18T10:38:38Z</time>
      </trkpt>
      <trkpt lat="43.79734" lon="3.55062">
        <ele>705</ele>
        <time>2023-12-18T10:38:38Z</time>
      </trkpt>
      <trkpt lat="43.79715" lon="3.55026">
        <ele>705</ele>
        <time>2023-12-18T10:38:38Z</time>
      </trkpt>
      <trkpt lat="43.79689" lon="3.55004">
        <ele>706</ele>
        <time>2023-12-18T10:38:38Z</time>
      </trkpt>
      <trkpt lat="43.7961" lon="3.54995">
        <ele>706</ele>
        <time>2023-12-18T10:38:38Z</time>
      </trkpt>
      <trkpt lat="43.79584" lon="3.54963">
        <ele>707</ele>
        <time>2023-12-18T10:38:38Z</time>
      </trkpt>
      <trkpt lat="43.79565" lon="3.5488">
        <ele>709</ele>
        <time>2023-12-18T10:38:38Z</time>
      </trkpt>
      <trkpt lat="43.79557" lon="3.54841">
        <ele>712</ele>
        <time>2023-12-18T10:38:38Z</time>
      </trkpt>
      <trkpt lat="43.79505" lon="3.54807">
        <ele>714</ele>
        <time>2023-12-18T10:38:38Z</time>
      </trkpt>
      <trkpt lat="43.79478" lon="3.54781">
        <ele>716</ele>
        <time>2023-12-18T10:38:38Z</time>
      </trkpt>
      <trkpt lat="43.79444" lon="3.54706">
        <ele>721</ele>
        <time>2023-12-18T10:38:38Z</time>
      </trkpt>
      <trkpt lat="43.79392" lon="3.5466">
        <ele>725</ele>
      </trkpt>
      <trkpt lat="43.79339" lon="3.54614">
        <ele>728</ele>
        <time>2023-12-18T10:38:38Z</time>
      </trkpt>
      <trkpt lat="43.79317" lon="3.54577">
        <ele>730</ele>
        <time>2023-12-18T10:38:38Z</time>
      </trkpt>
      <trkpt lat="43.79286" lon="3.54504">
        <ele>730</ele>
      </trkpt>
      <trkpt lat="43.79255" lon="3.54431">
        <ele>730</ele>
        <time>2023-12-18T10:38:38Z</time>
      </trkpt>
      <trkpt lat="43.79224" lon="3.54385">
        <ele>731</ele>
      </trkpt>
      <trkpt lat="43.79192" lon="3.54339">
        <ele>730</ele>
        <time>2023-12-18T10:38:38Z</time>
      </trkpt>
      <trkpt lat="43.79165" lon="3.54328">
        <ele>729</ele>
        <time>2023-12-18T10:38:38Z</time>
      </trkpt>
      <trkpt lat="43.79085" lon="3.54298">
        <ele>728</ele>
        <time>2023-12-18T10:38:38Z</time>
      </trkpt>
      <trkpt lat="43.79032" lon="3.54308">
        <ele>726</ele>
      </trkpt>
      <trkpt lat="43.78979" lon="3.54317">
        <ele>723</ele>
        <time>2023-12-18T10:38:38Z</time>
      </trkpt>
      <trkpt lat="43.78931" lon="3.54304">
        <ele>719</ele>
      </trkpt>
      <trkpt lat="43.78883" lon="3.54292">
        <ele>715</ele>
      </trkpt>
      <trkpt lat="43.78835" lon="3.54279">
        <ele>711</ele>
      </trkpt>
      <trkpt lat="43.78787" lon="3.54266">
        <ele>707</ele>
        <time>2023-12-18T10:38:38Z</time>
      </trkpt>
      <trkpt lat="43.78758" lon="3.54249">
        <ele>704</ele>
        <time>2023-12-18T10:38:38Z</time>
      </trkpt>
      <trkpt lat="43.78732" lon="3.54255">
        <ele>701</ele>
        <time>2023-12-18T10:38:38Z</time>
      </trkpt>
      <trkpt lat="43.78701" lon="3.54202">
        <ele>698</ele>
        <time>2023-12-18T10:38:38Z</time>
      </trkpt>
      <trkpt lat="43.78687" lon="3.54165">
        <ele>695</ele>
        <time>2023-12-18T10:38:38Z</time>
      </trkpt>
      <trkpt lat="43.7866" lon="3.54139">
        <ele>692</ele>
        <time>2023-12-18T10:38:38Z</time>
      </trkpt>
      <trkpt lat="43.78643" lon="3.54103">
        <ele>690</ele>
        <time>2023-12-18T10:38:38Z</time>
      </trkpt>
      <trkpt lat="43.78617" lon="3.54079">
        <ele>690</ele>
        <time>2023-12-18T10:38:38Z</time>
      </trkpt>
      <trkpt lat="43.78536" lon="3.54077">
        <ele>693</ele>
        <time>2023-12-18T10:38:38Z</time>
      </trkpt>
      <trkpt lat="43.7851" lon="3.54084">
        <ele>694</ele>
        <time>2023-12-18T10:38:38Z</time>
      </trkpt>
      <trkpt lat="43.78484" lon="3.54068">
        <ele>695</ele>
        <time>2023-12-18T10:38:38Z</time>
      </trkpt>
      <trkpt lat="43.78433" lon="3.54">
        <ele>696</ele>
        <time>2023-12-18T10:38:38Z</time>
      </trkpt>
      <trkpt lat="43.7838" lon="3.53959">
        <ele>694</ele>
      </trkpt>
      <trkpt lat="43.78326" lon="3.53918">
        <ele>689</ele>
        <time>2023-12-18T10:38:38Z</time>
      </trkpt>
      <trkpt lat="43.78301" lon="3.53882">
        <ele>684</ele>
        <time>2023-12-18T10:38:38Z</time>
      </trkpt>
      <trkpt lat="43.7829" lon="3.53845">
        <ele>661</ele>
        <time>2023-12-18T10:38:38Z</time>
      </trkpt>
      <trkpt lat="43.78264" lon="3.53832">
        <ele>659</ele>
        <time>2023-12-18T10:38:38Z</time>
      </trkpt>
      <trkpt lat="43.78228" lon="3.5388">
        <ele>651</ele>
        <time>2023-12-18T10:38:38Z</time>
      </trkpt>
      <trkpt lat="43.78202" lon="3.53875">
        <ele>645</ele>
        <time>2023-12-18T10:38:38Z</time>
      </trkpt>
      <trkpt lat="43.78123" lon="3.53875">
        <ele>636</ele>
        <time>2023-12-18T10:38:38Z</time>
      </trkpt>
      <trkpt lat="43.7807" lon="3.53856">
        <ele>626</ele>
        <time>2023-12-18T10:38:38Z</time>
      </trkpt>
      <trkpt lat="43.78017" lon="3.53854">
        <ele>618</ele>
        <time>2023-12-18T10:38:38Z</time>
      </trkpt>
      <trkpt lat="43.77991" lon="3.53873">
        <ele>611</ele>
        <time>2023-12-18T10:38:38Z</time>
      </trkpt>
      <trkpt lat="43.77948" lon="3.538">
        <ele>606</ele>
        <time>2023-12-18T10:38:38Z</time>
      </trkpt>
      <trkpt lat="43.77921" lon="3.53772">
        <ele>601</ele>
        <time>2023-12-18T10:38:38Z</time>
      </trkpt>
      <trkpt lat="43.77895" lon="3.53783">
        <ele>596</ele>
        <time>2023-12-18T10:38:38Z</time>
      </trkpt>
      <trkpt lat="43.77872" lon="3.5382">
        <ele>589</ele>
        <time>2023-12-18T10:38:38Z</time>
      </trkpt>
      <trkpt lat="43.77819" lon="3.53802">
        <ele>582</ele>
        <time>2023-12-18T10:38:38Z</time>
      </trkpt>
      <trkpt lat="43.77793" lon="3.5379">
        <ele>575</ele>
        <time>2023-12-18T10:38:38Z</time>
      </trkpt>
      <trkpt lat="43.77766" lon="3.5377">
        <ele>569</ele>
        <time>2023-12-18T10:38:38Z</time>
      </trkpt>
      <trkpt lat="43.7774" lon="3.53762">
        <ele>564</ele>
        <time>2023-12-18T10:38:38Z</time>
      </trkpt>
      <trkpt lat="43.77714" lon="3.53762">
        <ele>559</ele>
        <time>2023-12-18T10:38:38Z</time>
      </trkpt>
      <trkpt lat="43.77661" lon="3.53738">
        <ele>552</ele>
        <time>2023-12-18T10:38:38Z</time>
      </trkpt>
      <trkpt lat="43.7761" lon="3.53669">
        <ele>545</ele>
        <time>2023-12-18T10:38:38Z</time>
      </trkpt>
      <trkpt lat="43.77531" lon="3.5359">
        <ele>538</ele>
        <time>2023-12-18T10:38:38Z</time>
      </trkpt>
      <trkpt lat="43.77512" lon="3.53551">
        <ele>534</ele>
        <time>2023-12-18T10:38:38Z</time>
      </trkpt>
      <trkpt lat="43.77486" lon="3.5353">
        <ele>530</ele>
        <time>2023-12-18T10:38:38Z</time>
      </trkpt>
      <trkpt lat="43.7746" lon="3.53523">
        <ele>527</ele>
        <time>2023-12-18T10:38:38Z</time>
      </trkpt>
      <trkpt lat="43.77433" lon="3.53523">
        <ele>524</ele>
        <time>2023-12-18T10:38:38Z</time>
      </trkpt>
      <trkpt lat="43.77407" lon="3.53519">
        <ele>521</ele>
        <time>2023-12-18T10:38:38Z</time>
      </trkpt>
      <trkpt lat="43.77381" lon="3.53506">
        <ele>519</ele>
        <time>2023-12-18T10:38:38Z</time>
      </trkpt>
      <trkpt lat="43.77354" lon="3.53474">
        <ele>517</ele>
        <time>2023-12-18T10:38:38Z</time>
      </trkpt>
      <trkpt lat="43.77333" lon="3.53511">
        <ele>516</ele>
        <time>2023-12-18T10:38:38Z</time>
      </trkpt>
      <trkpt lat="43.7732" lon="3.53569">
        <ele>507</ele>
        <time>2023-12-18T10:38:38Z</time>
      </trkpt>
    </trkseg>
  </trk>
</gpx>